Location: Home
(42.5358°N, 72.7383°W)
Time: 12:13:30
(UTC-05:00)

A-11 Canister half - Pass Details

Date: 06 December 2021
Orbit: 1516 x 1684 km, 47.2° (Epoch: 26 January)

Event Time Altitude Azimuth Distance (km) Brightness Sun altitude
Rises 13:39:34 0° 295° (WNW) 4,909 11.7 19.5°
Reaches altitude 10° 13:43:10 10° 286° (WNW) 3,933 11.4 19.2°
Maximum altitude 13:51:33 31° 229° (SW) 2,639 11.9 18.4°
Drops below altitude 10° 13:59:57 10° 172° (S) 3,928 12.0 17.5°
Sets 14:03:35 0° 163° (SSE) 4,902 12.2 17.2°
